Content
SEND FEEDBACK

Daily
Averages
Monthly
Summary
Mexico

CANCUN, QUINTANA ROO


Home > North America > Mexico > Quintana Roo
Elevation: 9 meters     Latitude: 21 09N     Longitude: 086 49W

WEATHER
 
SELECT A DAY
Number of Records: 167,785;   Date Range: 1/1/95 - 12/19/14
 
SHARE

PRINT THIS DATA

[ ← Previous Day ]
WEATHER ALMANAC - 25 MARCH, 2013
[ Next Day → ]
[ °F ]   °C
Weather ElementAverageHighLow
Temperature24.7 °C27 °C (9:50 am)22 °C (11:51 pm)
Dewpoint22.3 °C25 °C (8:41 am)19 °C (10:40 pm)
Humidity87.2 %100 % (1:44 am)73 % (10:40 pm)
Barometer975.6 hPa1016.3 hPa (8:43 pm) (7:00 pm)
Wind Speed10.6 km/h18.5 km/h (1:01 pm)
Weather ElementAverage
Visibility7.2 km
Wind DirectionESE (107.6 °)

Weather ElementTotal
Precipitation---
Cooling Degree Days6.2 (Base 18.3)
Growing Degree Days14.5 (Base 10)
Averaged from 25 records on 25 March, 2013
WEATHER CONDITIONS BREAKOUT
WIND DIRECTION BREAKOUT
WEATHER BY HOUR - 25 MARCH, 2013
[ °F ]   °C
Local TimeTemperatureDewpointHumidityBarometerVisibilityWind DirectionWind SpeedGust SpeedPrecipitationEventsConditions
1:44 AM24 °C24 °C100 %1007.5 hPa8 kmNNW (340°)9.3 km/hScattered Clouds
2:46 AM24 °C23 °C94 %1006.8 hPa8 kmNE (40°)9.3 km/hScattered Clouds
3:45 AM23 °C23 °C100 %1007.8 hPa8 kmCalmScattered Clouds
4:44 AM23 °C22 °C94 %1008.5 hPa8 kmCalmScattered Clouds
5:44 AM23 °C22 °C94 %1007.5 hPa8 kmNNE (30°)9.3 km/hScattered Clouds
6:42 AM23 °C22 °C94 %1010.8 hPa8 kmWNW (300°)9.3 km/hMostly Cloudy
7:45 AM24 °C23 °C94 %1011.9 hPa8 kmWNW (300°)5.6 km/hMostly Cloudy
8:41 AM26 °C25 °C94 %1012.5 hPa4.8 kmNNW (340°)7.4 km/hMostly Cloudy
9:50 AM27 °C24 °C84 %1012.9 hPa4.8 kmNNW (340°)5.6 km/hOvercast
10:41 AM26 °C24 °C89 %1012.9 hPa4.8 kmCalmRainLight Rain
10:55 AM26 °C24 °C89 %4.8 kmNNE (20°)5.6 km/hRainLight Rain
11:49 AM26 °C24 °C89 %1012.5 hPa4.8 kmNorth (10°)11.1 km/hRainLight Rain
12:40 PM25 °C24 °C94 %1011.5 hPa3.2 kmNNE (30°)13 km/hRainLight Rain
1:01 PM26 °C24 °C89 %1011.2 hPa8 kmNE (40°)18.5 km/hOvercast
1:45 PM26 °C23 °C83 %1010.8 hPa8 kmNNE (20°)13 km/hOvercast
2:46 PM26 °C23 °C83 %1011.5 hPa8 kmNNE (20°)16.7 km/hOvercast
3:46 PM25 °C22 °C83 %1011.2 hPa8 kmNorth (10°)11.1 km/hOvercast
4:42 PM25 °C22 °C83 %1012.2 hPa8 kmNNE (20°)13 km/hOvercast
5:41 PM25 °C21 °C78 %1013.2 hPa8 kmNorth (360°)14.8 km/hOvercast
6:44 PM25 °C21 °C78 %1013.9 hPa8 kmNorth (360°)14.8 km/hOvercast
7:41 PM24 °C20 °C78 %1014.6 hPa8 kmNorth (10°)18.5 km/hOvercast
8:43 PM24 °C20 °C78 %1016.3 hPa8 kmNE (50°)16.7 km/hOvercast
9:43 PM24 °C20 °C78 %1016.3 hPa8 kmNNE (20°)16.7 km/hOvercast
10:40 PM24 °C19 °C73 %1016.3 hPa8 kmNNE (20°)14.8 km/hOvercast
11:51 PM22 °C20 °C88 %1015.9 hPa8 kmNorth (10°)9.3 km/hOvercast
Hourly data recorded from MMUN, located 0 kilometers away from Cancun, Quintana Roo







STORIES FROM OUR PARTNERS